Location: Newark
(48.5769°N, 6.6975°E)
Time: 13:20:23
(UTC+00:00)

N. Korean satellite - Visible Passes

Search period start: 18 November 2019 00:00
Search period end: 28 November 2019 00:00
Orbit: 456 x 506 km, 97.2° (Epoch: 17 November)

Date Brightness Start Highest point End Pass type
(mag) Time Alt. Az. Time Alt. Az. Time Alt. Az.
18 Nov 8.5 05:00:21 10° NNE 05:03:45 33° E 05:07:07 10° SSE visible
18 Nov 8.8 17:12:41 10° SSW 17:15:54 29° W 17:19:12 10° NNW visible
19 Nov 9.6 04:35:34 10° NE 04:38:12 18° E 04:40:48 10° SE visible
19 Nov 7.1 06:08:16 10° N 06:11:45 38° WNW 06:15:11 10° SW visible
19 Nov 7.4 16:46:50 10° S 16:50:26 58° W 16:54:06 10° NNW visible
20 Nov 6.5 05:42:43 10° N 05:46:27 76° WNW 05:50:06 10° SSW visible
20 Nov 6.6 16:21:24 10° SSE 16:25:02 70° ENE 16:28:45 10° N visible
20 Nov 10.3 17:58:14 10° W 17:58:54 10° W 17:59:33 10° WNW visible
21 Nov 7.5 05:17:23 10° NNE 05:21:03 53° E 05:24:37 10° S visible
21 Nov 9.6 17:30:32 10° SW 17:33:14 19° W 17:36:00 10° NW visible
22 Nov 8.9 04:52:19 10° NE 04:55:32 27° E 04:58:42 10° SSE visible
22 Nov 8.4 17:04:17 10° SSW 17:07:41 36° W 17:11:09 10° NNW visible
23 Nov 9.9 04:27:46 10° NE 04:29:56 15° E 04:32:06 10° SE visible
23 Nov 6.9 06:00:02 10° N 06:03:36 47° WNW 06:07:06 10° SW visible
23 Nov 6.9 16:38:33 10° S 16:42:13 73° WSW 16:45:58 10° NNW visible
24 Nov 6.6 05:34:33 10° NNE 05:38:15 87° ESE 05:41:54 10° SSW visible
24 Nov 10.1 17:48:52 10° WSW 17:50:36 13° W 17:52:22 10° WNW visible
25 Nov 7.9 05:09:16 10° NNE 05:12:49 42° E 05:16:16 10° S visible
25 Nov 9.3 17:21:57 10° SSW 17:24:58 23° W 17:28:02 10° NW visible
26 Nov 9.2 04:44:18 10° NE 04:47:16 22° E 04:50:10 10° SSE visible
26 Nov 7.4 06:17:26 10° N 06:20:42 30° WNW 06:23:54 10° SW visible
26 Nov 7.9 16:55:54 10° S 16:59:26 44° W 17:03:02 10° NNW visible
27 Nov 10.1 04:20:07 10° ENE 04:21:37 12° E 04:23:06 10° ESE visible
27 Nov 6.6 05:51:46 10° N 05:55:24 58° WNW 05:58:57 10° SSW visible
27 Nov 6.7 16:30:18 10° SSE 16:34:00 90° W 16:37:45 10° NNW visible
